Location: Fauquembergues
(50.6005°N, 2.0987°E)
Time: 04:13:53
(UTC+00:00)

NPP - Pass Details

Date: 14 July 2020
Orbit: 826 x 828 km, 98.7° (Epoch: 06 August)

Event Time Altitude Azimuth Distance (km) Brightness Sun altitude
Rises 01:17:13 0° 18° (NNE) 3,379 8.7 -15.7°
Reaches altitude 10° 01:19:40 10° 24° (NNE) 2,441 7.5 -15.5°
Maximum altitude 01:24:55 50° 100° (E) 1,051 4.3 -15.2°
Enters shadow 01:28:50 17° 170° (S) 1,955 5.1 -15.0°
